Location: Asheville, NC
(35.6000°N, 82.5500°W)
Time: 07:11:11
(UTC-04:00)

KKS-1 - Pass Details

Date: 11 January 2018
Orbit: 638 x 649 km, 98.4° (Epoch: 23 June)

Event Time Altitude Azimuth Distance (km) Brightness Sun altitude
Rises 19:07:00 0° 351° (N) 2,948 ? -18.0°
Reaches altitude 10° 19:10:01 10° 329° (NNW) 2,036 ? -18.6°
Maximum altitude 19:12:33 15° 294° (WNW) 1,711 ? -19.1°
Drops below altitude 10° 19:15:05 10° 259° (WSW) 2,033 ? -19.6°
Sets 19:18:06 0° 236° (SW) 2,940 ? -20.2°
